Weather Roundup
Issued by NWS

Home | Current Version | Previous Version | Graphics & Text | Print | Product List | Glossary Off
Versions: 1 2 3 4 5 6 7 8 9 10 11 12 13 14 15 16 17 18 19 20 21 22 23 24 25 26 27 28 29 30 31 32 33 34 35 36 37 38 39 40 41 42 43 44 45 46 47 48 49 50

000
NZUS93 KARX 271610
HRRWXR

CURRENT HOURLY OBSERVATIONS ACROSS
MUCH OF THE UPPER MISSISSIPPI VALLEY
NATIONAL WEATHER SERVICE LA CROSSE WI
1000 AM CST TUE JAN 27 2015


...SOUTHEAST MINNESOTA...


CITY           SKY/WX    TMP DP  RH WIND       PRES   REMARKS
ROCHESTER      CLOUDY    30  24  78 E7        30.15R WCI  23
ROCHESTER/MAYO CLOUDY    31  24  74 N5        30.16R WCI  26
WINONA         CLOUDY    30  23  74 E3        30.19R
AUSTIN         CLOUDY    32  27  80 E6        30.15R WCI  26
ALBERT LEA     CLOUDY    34  28  80 E3        30.15R
DODGE CENTER   CLOUDY    30  27  86 NE5       30.14R WCI  25
PRESTON        CLOUDY    28  24  83 NE6       30.16R WCI  22
OWATONNA       CLOUDY    34  27  75 E3        30.16R
FARIBAULT      CLOUDY    34  27  75 CALM      30.16R
$$

...ELSEWHERE IN MINNESOTA...


CITY           SKY/WX    TMP DP  RH WIND       PRES   REMARKS
MINNEAPOLIS    CLOUDY    32  24  72 CALM      30.17R
INTNL FALLS    CLOUDY    24  21  88 S6        30.10R WCI  17
DULUTH         CLOUDY    26  22  84 S7        30.11R WCI  18
RED WING       CLOUDY    32  25  74 E3        30.17R
REDWOOD FALLS  CLOUDY    31  28  89 S8        30.14R WCI  23
MANKATO        CLOUDY    34  25  69 SE6       30.15R WCI  29
WORTHINGTON    CLOUDY    28  27  93 SE12      30.11F VSB 1/4 WCI  18
FAIRMONT       SUNNY     34  21  60 SE3       30.13S
$$

...SOUTHWEST WISCONSIN...


CITY           SKY/WX    TMP DP  RH WIND       PRES   REMARKS
LA CROSSE      CLOUDY    30  21  69 NE8       30.18R WCI  22
PRAIRIE DU CHI CLOUDY    29  20  66 N8        30.18R WCI  22
BOSCOBEL       CLOUDY    29  21  72 NE5       30.18R WCI  24
LONE ROCK      CLOUDY    27  21  78 NE5       30.18R WCI  22
PLATTEVILLE    CLOUDY    27  23  84 N9        30.16R WCI  18
FORT MC COY    CLOUDY    27  23  87 NE3       30.18R
CAMP DOUGLAS   CLOUDY    25  25 100 NE1       30.17R
VIROQUA        CLOUDY    26  23  90 NE7       30.14R WCI  18
WIS DELLS      CLOUDY    25  23  91 CALM      30.16R FOG
$$

...ELSEWHERE IN WISCONSIN...


CITY           SKY/WX    TMP DP  RH WIND       PRES   REMARKS
MILWAUKEE      PTSUNNY   28  16  60 NE9       30.17R WCI  19
MADISON        FOG       26  23  88 NE7       30.16R VSB 1   WCI  18
GREEN BAY      CLOUDY    24  16  71 NE12      30.20R WCI  13
EAU CLAIRE     CLOUDY    28  22  78 CALM      30.17R
BLACK RVR FLS  CLOUDY    27  25  91 NE3       30.17R
MEDFORD        CLOUDY    22  20  93 NE3       30.14R FOG
WAUSAU         CLOUDY    22  20  92 SE5       30.15R FOG     WCI  16
WIS RAPIDS     CLOUDY    24  21  88 E7        30.18R FOG     WCI  16
MARSHFIELD     CLOUDY    24  20  84 E5        30.15R FOG     WCI  18
RICE LAKE      CLOUDY    28  22  78 CALM      30.17R
$$

...NORTHEAST IOWA...


CITY           SKY/WX    TMP DP  RH WIND       PRES   REMARKS
DECORAH        CLOUDY    28  25  86 NE7       30.15R WCI  21
MASON CITY     CLOUDY    34  29  82 E5        30.16R WCI  30
CHARLES CITY   CLOUDY    34  30  86 NE7       30.15R WCI  28
OELWEIN        CLOUDY    30  27  86 NE10      30.16R WCI  21
$$

...ELSEWHERE IN IOWA...


CITY           SKY/WX    TMP DP  RH WIND       PRES   REMARKS
DES MOINES     MOSUNNY   39  30  70 E5        30.17R
IOWA CITY      CLOUDY    33  27  78 NE8       30.19R WCI  26
FORT DODGE     SUNNY     34  30  86 E3        30.16S
$$

...NORTHERN ILLINOIS...


CITY           SKY/WX    TMP DP  RH WIND       PRES   REMARKS
CHICAGO-OHARE  CLOUDY    28  20  71 NE8       30.14R WCI  20
CHICAGO-MIDWAY CLOUDY    30  20  66 E10       30.14R WCI  21
MOLINE         CLOUDY    30  23  75 NE10      30.17R WCI  21
ROCKFORD       CLOUDY    28  24  85 NE9       30.17R FOG     WCI  19
PEORIA         CLOUDY    31  25  78 N7        30.16R WCI  24
$$

NOTE: "FAIR" INDICATES FEW OR NO CLOUDS BELOW 12,000 FEET WITH NO
SIGNIFICANT WEATHER AND/OR OBSTRUCTIONS TO VISIBILITY. WIND
SPEEDS ARE IN MILES-PER-HOUR.



USA.gov is the U.S. government's official web portal to all federal, state and local government web resources and services.